Location: Casilda
(33.0440°S, 61.1680°W)
Time: 18:45:40
(UTC-03:00)

ISS - Pass Details

Date: 27 November 2021
Orbit: 417 x 423 km, 51.6° (Epoch: 28 November)

Event Time Altitude Azimuth Distance (km) Brightness Sun altitude
Exits shadow 04:27:40 23° 260° (W) 963 -2.3 -15.3°
Maximum altitude 04:29:00 31° 218° (SW) 777 -2.4 -15.1°
Drops below altitude 10° 04:32:05 10° 154° (SSE) 1,520 0.1 -14.6°
Sets 04:34:22 0° 143° (SE) 2,391 1.7 -14.2°
